TimePST,TemperatureF,Dew PointF,Humidity,Sea Level PressureIn,VisibilityMPH,Wind Direction,Wind SpeedMPH,Gust SpeedMPH,PrecipitationIn,Events,Conditions,WindDirDegrees,DateUTC
12:53 AM,64.9,50.0,58,29.96,10.0,SW,15.0,-,N/A,,Mostly Cloudy,230,2012-12-26 08:53:00
1:53 AM,68.0,51.1,55,29.95,7.0,SW,13.8,-,N/A,,Mostly Cloudy,230,2012-12-26 09:53:00
1:58 AM,66.2,51.8,60,29.96,4.0,SW,15.0,-,N/A,,Overcast,220,2012-12-26 09:58:00
2:07 AM,66.2,51.8,60,29.95,2.5,SW,12.7,-,N/A,,Overcast,230,2012-12-26 10:07:00
2:14 AM,66.2,51.8,60,29.95,3.0,SW,12.7,-,N/A,,Overcast,220,2012-12-26 10:14:00
2:21 AM,66.2,51.8,60,29.95,3.0,SW,11.5,-,N/A,,Overcast,220,2012-12-26 10:21:00
2:33 AM,66.2,53.6,64,29.95,2.0,SW,12.7,-,N/A,,Overcast,230,2012-12-26 10:33:00
2:41 AM,66.2,53.6,64,29.95,0.8,SSW,13.8,-,0.01,,Unknown,210,2012-12-26 10:41:00
2:53 AM,66.9,53.1,61,29.93,0.2,SW,12.7,-,0.01,,Unknown,230,2012-12-26 10:53:00
3:16 AM,66.2,53.6,64,29.94,3.0,West,17.3,25.3,N/A,,Overcast,280,2012-12-26 11:16:00
3:22 AM,66.2,53.6,64,29.94,10.0,WNW,15.0,25.3,N/A,,Mostly Cloudy,290,2012-12-26 11:22:00
3:33 AM,64.4,51.8,64,29.94,10.0,WNW,19.6,-,N/A,,Scattered Clouds,290,2012-12-26 11:33:00
3:53 AM,64.0,52.0,65,29.93,10.0,WNW,23.0,32.2,N/A,,Partly Cloudy,300,2012-12-26 11:53:00
4:53 AM,64.0,48.9,58,29.93,10.0,WNW,17.3,-,N/A,,Scattered Clouds,290,2012-12-26 12:53:00
5:53 AM,56.1,49.1,77,29.95,7.0,WNW,16.1,24.2,N/A,,Mostly Cloudy,300,2012-12-26 13:53:00
6:01 AM,64.4,50.0,59,29.96,10.0,WNW,17.3,23.0,N/A,,Mostly Cloudy,300,2012-12-26 14:01:00
6:33 AM,57.2,48.2,72,29.97,7.0,WNW,18.4,-,N/A,,Mostly Cloudy,300,2012-12-26 14:33:00
6:53 AM,57.6,48.9,73,29.96,7.0,WNW,13.8,-,N/A,,Scattered Clouds,300,2012-12-26 14:53:00
7:53 AM,53.4,43.3,69,29.98,7.0,WNW,19.6,28.8,N/A,,Scattered Clouds,300,2012-12-26 15:53:00
8:53 AM,55.0,49.8,83,30.00,7.0,WNW,21.9,28.8,N/A,,Scattered Clouds,300,2012-12-26 16:53:00
9:53 AM,54.7,48.9,81,30.02,7.0,WNW,21.9,-,N/A,,Scattered Clouds,300,2012-12-26 17:53:00
10:53 AM,56.1,48.0,74,30.03,7.0,WNW,19.6,29.9,N/A,,Scattered Clouds,300,2012-12-26 18:53:00
11:53 AM,56.1,47.8,74,30.00,7.0,WNW,25.3,31.1,N/A,,Scattered Clouds,300,2012-12-26 19:53:00
12:53 PM,56.1,46.0,69,29.98,7.0,WNW,20.7,29.9,N/A,,Scattered Clouds,300,2012-12-26 20:53:00
1:53 PM,56.3,46.8,70,29.98,7.0,WNW,26.5,32.2,N/A,,Partly Cloudy,300,2012-12-26 21:53:00
2:53 PM,55.4,46.2,71,29.99,7.0,WNW,26.5,33.4,N/A,,Partly Cloudy,300,2012-12-26 22:53:00
3:53 PM,58.6,46.9,65,29.99,7.0,WNW,24.2,33.4,N/A,,Scattered Clouds,300,2012-12-26 23:53:00
4:53 PM,60.1,45.0,57,30.00,10.0,WNW,24.2,31.1,N/A,,Scattered Clouds,300,2012-12-27 00:53:00
5:53 PM,59.0,44.1,58,30.01,10.0,WNW,21.9,29.9,N/A,,Clear,300,2012-12-27 01:53:00
6:53 PM,59.0,43.0,55,30.02,10.0,NW,23.0,32.2,N/A,,Clear,310,2012-12-27 02:53:00
7:53 PM,59.0,44.1,58,30.02,10.0,WNW,23.0,31.1,N/A,,Clear,300,2012-12-27 03:53:00
8:53 PM,60.1,42.1,51,30.03,10.0,WNW,23.0,28.8,N/A,,Clear,300,2012-12-27 04:53:00
9:53 PM,60.1,44.1,55,30.04,10.0,WNW,21.9,28.8,N/A,,Mostly Cloudy,300,2012-12-27 05:53:00
10:10 PM,59.0,44.6,59,30.04,10.0,WNW,21.9,32.2,N/A,,Scattered Clouds,300,2012-12-27 06:10:00
10:18 PM,60.8,44.6,55,30.04,10.0,WNW,23.0,34.5,N/A,,Mostly Cloudy,290,2012-12-27 06:18:00
10:31 PM,59.0,42.8,55,30.04,10.0,WNW,25.3,32.2,N/A,,Scattered Clouds,290,2012-12-27 06:31:00
10:53 PM,59.0,44.1,58,30.03,10.0,WNW,27.6,35.7,N/A,,Clear,290,2012-12-27 06:53:00
11:53 PM,57.9,44.1,60,30.02,10.0,WNW,28.8,35.7,N/A,,Scattered Clouds,300,2012-12-27 07:53:00